Overview Statistics Trail Chart Weather Telemetry Raw packets
 

This is the latest recevied weather packets stored in our database for station/object WW5JC. If no packets are shown the sender has not sent any weather packets the latest 10 day(s).

<< 51 52 53 54 55 56 57 >>
Time Temp. Humidity Pressure Rain* Wind** Luminosity Snow
1788283910 35° C 49% 1019.2 hPa 0 mm - 681 W/m² -
1788283606 35° C 48% 1019.2 hPa 0 mm - 696 W/m² -
1788283298 35° C 50% 1019.4 hPa 0 mm - 679 W/m² -
1788282998 35° C 51% 1019.4 hPa 0 mm - 666 W/m² -
1788282697 34.44° C 51% 1019.5 hPa 0 mm - 653 W/m² -
1788282391 35° C 51% 1019.5 hPa 0 mm - 640 W/m² -
1788282086 35° C 51% 1019.4 hPa 0 mm - 641 W/m² -
1788281785 33.89° C 52% 1019.5 hPa 0 mm - 645 W/m² -
1788281480 33.89° C 54% 1019.3 hPa 0 mm - 633 W/m² -
1788281176 33.89° C 53% 1019.7 hPa 0 mm - 598 W/m² -
1788280876 34.44° C 54% 1019.6 hPa 0 mm - 593 W/m² -
1788280572 34.44° C 53% 1019.7 hPa 0 mm - 583 W/m² -
1788280270 34.44° C 52% 1019.6 hPa 0 mm - 577 W/m² -
1788279967 33.33° C 56% 1019.8 hPa 0 mm - 579 W/m² -
1788279665 33.89° C 56% 1019.9 hPa 0 mm - 561 W/m² -
1788279365 33.89° C 56% 1019.9 hPa 0 mm - 387 W/m² -
1788279064 33.89° C 55% 1020 hPa 0 mm - 538 W/m² -
1788278761 33.89° C 56% 1019.9 hPa 0 mm - 524 W/m² -
1788278456 34.44° C 54% 1020 hPa 0 mm - 503 W/m² -
1788278155 33.33° C 55% 1019.8 hPa 0 mm - 497 W/m² -
1788277850 33.33° C 55% 1020 hPa 0 mm - 483 W/m² -
1788277545 33.33° C 56% 1020.1 hPa 0 mm - 473 W/m² -
1788277239 33.33° C 57% 1020 hPa 0 mm - 457 W/m² -
1788276946 33.33° C 58% 1020 hPa 0 mm - 444 W/m² -
1788276629 33.33° C 58% 1020 hPa 0 mm - 431 W/m² -

* Rain latest hour (hover to see other rain measurements)
** Current wind speed in m/s (hover to see current wind gust speed)